Regional Weather Roundup
Issued by NWS

Home | Current Version | Previous Version | Graphics & Text | Print | Product List | Glossary Off
Versions: 1 2 3 4 5 6 7 8 9 10 11 12 13 14 15 16 17 18 19 20 21 22 23 24 25 26 27 28 29 30 31 32 33 34 35 36 37 38 39 40 41 42 43 44 45 46 47 48 49 50

423
ASUS43 KMKX 281700
RWRWI

WISCONSIN REGIONAL WEATHER ROUNDUP
NATIONAL WEATHER SERVICE MILWAUKEE/SULLIVAN WI
1200 PM CDT WED SEP 28 2016

NOTE: "FAIR" INDICATES FEW OR NO CLOUDS BELOW 12,000 FEET WITH NO
SIGNIFICANT WEATHER AND/OR OBSTRUCTIONS TO VISIBILITY.

WIZ001-002-006>008-014>016-023>028-281800-
NORTHWEST WISCONSIN

CITY           SKY/WX    TMP DP  RH WIND       PRES   REMARKS
SUPERIOR ARPT  CLOUDY    58  49  72 NE8       30.20R
ASHLAND        CLOUDY    58  52  80 NE20G32   30.18R
HAYWARD        MOSUNNY   58  49  72 NE20G29   30.16R
SIREN          CLOUDY    57  49  76 NE10      30.16R
CUMBERLAND     CLOUDY    55  48  76 N14G26    30.13R
RICE LAKE      PTSUNNY   59  49  68 N16       30.14R
CHETEK         NOT AVBL
LADYSMITH      PTSUNNY   58  49  72 N17       30.12R
EAU CLAIRE     NOT AVBL
MENOMONIE      PTSUNNY   59  57  93 N20G25    30.09S
NEW RICHMOND   CLOUDY    58  48  70 N13G21    30.14R
OSCEOLA        CLOUDY    57  49  75 N8        30.19R
$$

WIZ003>005-009-010-017-018-281800-
NORTH CENTRAL WISCONSIN

CITY           SKY/WX    TMP DP  RH WIND       PRES   REMARKS
MANITOWISH WTR NOT AVBL
ARBOR VITAE    MOSUNNY   57  47  71 NE10G18   30.10R
WOODRUFF       MOSUNNY   57  47  71 NE10G18   30.10R
RHINELANDER    CLOUDY    56  48  74 NE8G18    30.09R
EAGLE RIVER    PTSUNNY   57  46  67 NE12G18   30.09R
LAND O LAKES   PTSUNNY   57  49  72 NE8       30.11R
PHILLIPS       PTSUNNY   58  48  69 NE14G23   30.09S
TOMAHAWK       PTSUNNY   56  48  73 NE8G18    30.09R
MEDFORD        CLOUDY    56  51  85 NE16G22   30.07R
MERRILL        CLOUDY    56  49  79 NE13      30.07R
$$

WIZ029-030-035-036-043>047-281800-
CENTRAL WISCONSIN

CITY           SKY/WX    TMP DP  RH WIND       PRES   REMARKS
WAUSAU         CLOUDY    58  47  66 NE9G20    30.05R
MOSINEE        CLOUDY    57  50  77 NE12G18   30.05R
MARSHFIELD     CLOUDY    59  48  67 NE14G22   30.04R
STEVENS POINT  CLOUDY    56  48  73 NE16      30.03R
WAUPACA        MOSUNNY   60  51  71 NE8G20    30.01R
WAUTOMA        CLOUDY    59  50  72 NE15G23   30.02R
WISC RAPIDS    CLOUDY    61  50  67 NE10G20   30.04R
CAMP DOUGLAS   NOT AVBL
$$

WIZ011>013-019>022-031-037>040-048>050-281800-
NORTHEAST WISCONSIN

CITY           SKY/WX    TMP DP  RH WIND       PRES   REMARKS
ANTIGO         PTSUNNY   56  49  80 NE15      30.06R
SHAWANO        CLOUDY    59  52  77 NE12      30.03R
OCONTO         NOT AVBL
STURGEON BAY   PTSUNNY   59  50  72 MISG      30.02R
GREEN BAY      HVY RAIN  56  54  93 NE14G26   30.00R FOG
MANITOWOC      CLOUDY    59  50  72 NE8       29.98R
APPLETON       PTSUNNY   57  54  88 NE15G24   29.99R
CLINTONVILLE   NOT AVBL
OSHKOSH        LGT RAIN  58  51  78 N15       29.98R
$$

WIZ032>034-041-042-053>061-281800-
SOUTHWEST WISCONSIN

CITY           SKY/WX    TMP DP  RH WIND       PRES   REMARKS
LA CROSSE      LGT RAIN  61  53  75 N15G22    30.05R
SPARTA         CLOUDY    57  52  82 N6        30.04R
VIROQUA        CLOUDY    55  51  86 N9G17     30.03R
BOSCOBEL       CLOUDY    59  49  69 N8        30.03R
PRAIRIE DU CHI CLOUDY    56  49  75 N8G18     30.03R
PLATTEVILLE    CLOUDY    58  52  80 N13G21    30.00R
$$

WIZ056-057-062-063-064-067-068-281800-
SOUTH CENTRAL WISCONSIN

CITY           SKY/WX    TMP DP  RH WIND       PRES   REMARKS
REEDSBURG      NOT AVBL
BARABOO/DELLS  CLOUDY    55  50  81 N6        30.00R
LONE ROCK      CLOUDY    58  49  72 N12G17    30.01R
MINERAL POINT  CLOUDY    55  52  88 N9        30.00R
MADISON        PTSUNNY   57  50  77 N13       29.98R
MIDDLETON      CLOUDY    57  53  85 NE9       29.99R
WATERTOWN      CLOUDY    55  50  82 N9        29.95R
MONROE         CLOUDY    54  50  87 N12       29.97R
JANESVILLE     CLOUDY    57  50  77 N8G14     29.95R
$$

WIZ051-052-058>065-066-070>072-281800-
SOUTHEAST WISCONSIN

CITY           SKY/WX    TMP DP  RH WIND       PRES   REMARKS
MILWAUKEE      CLOUDY    58  50  75 N13       29.96R
WAUKESHA       CLOUDY    54  48  82 NE9       29.97R
MILWAUKEE/TIMM CLOUDY    54  48  82 N8        29.97R HAZE
RACINE         CLOUDY    55  49  80 N16       29.96R
BURLINGTON     CLOUDY    56  46  67 N13       29.94R
KENOSHA        CLOUDY    57  48  72 N12G21    29.94R
FOND DU LAC    CLOUDY    58  52  80 N12       29.98R
SHEBOYGAN      PTSUNNY   57  50  77 NE13      29.97R
WEST BEND      CLOUDY    55  50  82 N10       29.95S
JUNEAU         CLOUDY    54  50  85 N14       29.97R
$$

LSZ147-162-281800-
LAKE SUPERIOR

STATION/POSITION TIME  TEMP    WIND        PRES    WAVE
                       AIR SEA DIR/SP/G            HT/PER
                 (UTC) (F)     (DEG/KT/KT) (MB)    (FT/S)
W MID LAKE BUOY  1550   55 51   40/ 16/ 19 1020.7R   5/ 7
DEVILS ISLAND    1600   53      30/ 14/ 16 1022.2R
SAXON HARBOR     1600   56      10/ 15/ 20 1021.0R
$$

LMZ867-665-643>646-281800-
LAKE MICHIGAN

STATION/POSITION TIME  TEMP    WIND        PRES    WAVE
                       AIR SEA DIR/SP/G            HT/PER
                 (UTC) (F)     (DEG/KT/KT) (MB)    (FT/S)
CHAMBERS ISLAND  1600   60      20/ 17/ 21 1015.6R
N MID LAKE BUOY  1550   59 66  100/ 16/ 17 1015.8R   3/ 4
NORTHPORT PIER   1600   60      70/ 14/ 19 1016.3R
SISTER BAY       1608          130/  5/  8   N/A
KEWAUNEE LAKESHO 1600   58      50/  7/ 12 1014.5R
SHEBOYGAN LAKESH 1600   55      20/ 14/ 15 1013.9R
PORT WASHINGTON  1600   56      30/  4/  9 1014.6
ATWATER BUOY     1600   54 54  360/ 10/ 12 1013.8R
MILWAUKEE LAKESH 1610   54      20/ 11/ 15   N/A
S MID LAKE BUOY  1550   59 69   40/ 12/ 14 1012.0R   1/ 3
KENOSHA   LAKESH 1600   53      10/ 15/ 16 1013.2R
$$

TC  - TEMPERATURE IN CELSIUS
VSB - VISIBILITY IN STATUTE MILES
WCI - WIND CHILL INDEX
HX  - HEAT INDEX





USA.gov is the U.S. government's official web portal to all federal, state and local government web resources and services.